Other Public Products
Issued by NWS Charleston, SC

Current Version | Previous Version | Graphics & Text | Print | Product List | Glossary On
Versions: 1 2 3 4 5 6 7 8 9 10 11 12 13 14 15 16 17 18 19 20 21 22 23 24 25 26 27 28 29 30 31 32 33 34 35 36 37 38 39 40 41 42 43 44 45 46 47 48 49 50
368
FPUS82 KCHS 200812
OPUCHS

TEST...KCHS/KSAV Gateway Observations...TEST
National Weather Service Charleston SC
300 AM EST SAT JAN 20 2018

NOTE: "fair" indicates few or no clouds below 12,000 feet with no
significant weather and/or obstructions to visibility.

SCZ050-WAZ558-NCZ071-TXZ119-213-PAZ071-DCZ001-FLZ074-172-MI076-
NYZ176-178-MAZ016-IL014-TNZ027-NJZ106-GAZ044-MD014-200900-

...Gateway Observations for Charleston International...

CITY           SKY/WX    TMP DP  RH WIND       PRES   REMARKS
Chas Airport   FAIR      38  29  70 W5        30.24S WCI  34
Seattle        LGT RAIN  43  39  86 SW13G24   29.96R
Charlotte      FAIR      34  18  52 CALM      30.15S
Dallas DFW     DRIZZLE   53  51  93 S8        30.00F FOG
Dallas Love    DRIZZLE   51  51 100 S7        30.02S FOG
Philladelphia  FAIR      32  20  61 SW8       29.98S WCI  25
Wash National  FAIR      31  22  69 S8        30.01S WCI  23
Baltimore      FAIR      27  19  72 W3        29.98F
Miami          MOCLDY    63  55  75 CALM      30.20F
Detroit        CLOUDY    34  25  69 SW17      29.80R WCI  23
Newark         FAIR      32  19  58 SW10      29.91F WCI  24
Laguardia      FAIR      38  19  46 SW13      29.90S WCI  30
J F K          FAIR      31  23  72 SW6       29.93F WCI  25
Boston Logan   CLOUDY    32  20  61 SW12      29.81F WCI  23
Ft. Lauderdale MOCLDY    59  57  93 W3        30.19F
Chicago O`Hare FAIR      37  27  67 SW12      29.80R WCI  29
Chicago Midway MOCLDY    38  28  67 SW13      29.82R WCI  30
Houston Bush   FOG       52  52 100 SE5       30.11F VSB 1/4
Houston Hobby  CLOUDY    51  51 100 E6        30.10F FOG
Nashville      CLOUDY    45  26  47 S10       30.17S
Atlanta        FAIR      35  13  40 NW8       30.24R WCI  29

$$

GAZ044-118-TXZ119-213-NCZ071-DCZ001-MDZ014-506-PAZ021-071-NJZ106-
NYZ176-178-MAZ106-OHZ011-021-055-MIZ076-KYZ091-ILZ014-INZ047-
MNZ060-ONZ431-200900-

...Gateway Observations for Savannah International...

CITY           SKY/WX    TMP DP  RH WIND       PRES   REMARKS
Savannah Arpt  FAIR      32  25  75 CALM      30.27S
Atlanta        FAIR      35  13  40 NW8       30.24R WCI  29
Charlotte      FAIR      34  18  52 CALM      30.15S
Dallas DFW     DRIZZLE   53  51  93 S8        30.00F FOG
Houston Bush   FOG       52  52 100 SE5       30.11F VSB 1/4
Wash National  FAIR      31  22  69 S8        30.01S WCI  23
Wash Dulles    FAIR      24  16  71 CALM      29.99S
Baltimore      FAIR      27  19  72 W3        29.98F
Philadelphia   FAIR      32  20  61 SW8       29.98S WCI  25
Newark         FAIR      32  19  58 SW10      29.91F WCI  24
Laguardia      FAIR      38  19  46 SW13      29.90S WCI  30
J F K          FAIR      31  23  72 SW6       29.93F WCI  25
Boston         CLOUDY    32  20  61 SW12      29.81F WCI  23
Pittsburg      FAIR      36  20  52 SW13G23   29.95S WCI  27
Akron          FAIR      32  21  64 SW14      29.92R WCI  22
Cleveland      MOCLDY    39  25  57 SW21G30   29.90R WCI  29
Cincinnati     MOCLDY    36  25  64 SW13      30.01S WCI  27
Columbus       FAIR      32  22  67 SW14      30.00R WCI  22
Detroit        CLOUDY    34  25  69 SW17      29.80R WCI  23
Chicago O`Hare FAIR      37  27  67 SW12      29.80R WCI  29
Minneapolis    MOCLDY    31  28  89 S3        29.76R
Indianapolis   FAIR      35  22  58 SW17      29.99R WCI  25
Toronto Canada PTCLDY    34  23  64 SW16G24   29.64S WCI  23

$$




USA.gov is the U.S. government's official web portal to all federal, state and local government web resources and services.